Tracking 31027 objects as of 19-Jul-2025
HD Live streaming from Space Station
objects crossing your sky now

CZ-3B DEB

Track CZ-3B DEB now!


NORAD ID: 39337
Int'l Code: 2010-042J
Perigee: 751.8 km
Apogee: 42,739.9 km
Inclination: 24.4 °
Period: 782.0 minutes
Semi major axis: 28116 km
RCS: 0.027 m2 (small)
Launch date: September 4, 2010
Source: People's Republic of China (PRC)
Launch site: Xichang Space Center, China (XSC)

Note: This is SATELLITE DEBRIS
Your satellite tracking list
Your tracking list is empty




NASA's NSSDC Master Catalog

Two Line Element Set (TLE):
1 39337U 10042J   25199.17373174 -.00000030  00000-0 -14416-2 0  9994
2 39337  24.4160 204.6380 7466729 141.2451 308.1960  1.84142107 76543
Source of the keplerian elements: AFSPC